THORAD AGENA D DEB, 19667

Orbit data source: Space-Track

THORAD AGENA D DEB, 19667 is space debris in SSO originally from a launch on Wed, 08 Apr 1970 UTC launched from the Air Force Western Test Range (AFWTR). Debris objects in space refer to the collection of defunct objects orbiting the Earth. Examples of debris include non-operational satellites, rocket bodies, and fragments generated from explosions, collisions, or faulty payload assembly.

Loading next visibility...
Identifier
19667, 1970-025QC
Orbit
SSO
Country
Flag of USUS
Related business
Manufacturer
Unknown
Mission
Spacecraft
Bus & Motor
Unknown
Mass
Unknown
Launch date (UTC)
1970-04-08 (56 years ago)
Launch vehicle
Unknown
Launch site
Air Force Western Test Range (AFWTR)
Object type
Payload
Rocket body
Debris
Shape & HBR
Unknown shape, 0.1 m
Radar Cross Section
Small (<0.1 m²)

Expand to show TLE details & history
Last TLE update: 12 hours ago

TLE from 12 hours ago
0 THORAD AGENA D DEB
1 19667U 70025QC  26035.24617862  .00001017  00000-0  33105-2 0  9998
2 19667  99.7484 318.4951 0338856  66.2992  85.6475 12.86121439764762
Epoch: 2026-02-04T05:54Z
TLE epoch observation values (Epoch: 2026-02-04T05:54:29.832Z)
Latitude
23.82377°
Longitude
-80.21592°
Altitude
1,308.674 km
Speed
7.21 km/s
True Right ascension
09h 31m 17s
True Declination
23° 42' 22"
Sunlit
Object was in full shadow at epoch
Visualization orbit readout
Latitude
Unknown
Longitude
Unknown
Altitude
Unknown
Speed
Unknown
Apparent Right ascension
Unknown
Apparent Declination
Unknown
Sunlit
N/A
Visualization observer readout
Local Sidereal Time
20:01:22
Azimuth
Unknown
Elevation
Unknown
Doppler factor
Unknown
Orbital elements
Apogee altitude
1,575.005 km
Perigee altitude
1,053.677 km
Semi-major axis
7,692.478 km
Eccentricity
0.03389
Inclination
99.7484°
RAAN
318.4951°
Arg. of periapsis
66.2992°
True anomaly
89.52882°
Mean anomaly
85.6475°
Eccentric anomaly
87.58728°
Mean motion
3.21695 °/min
Orbital period
111.91 mins
BSTAR
0.0033105
Loading maneuver chart data...
Computing Atmospheric mass density...

Documentation

Showing up to 5 results
|